EST,Max TemperatureF,Mean TemperatureF,Min TemperatureF,Max Dew PointF,MeanDew PointF,Min DewpointF,Max Humidity, Mean Humidity, Min Humidity, Max Sea Level PressureIn, Mean Sea Level PressureIn, Min Sea Level PressureIn, Max VisibilityMiles, Mean VisibilityMiles, Min VisibilityMiles, Max Wind SpeedMPH, Mean Wind SpeedMPH, Max Gust SpeedMPH,PrecipitationIn, CloudCover, Events, WindDirDegrees
2013-2-1,60,48,35,36,29,21,81,54,29,30.35,30.28,30.23,10,10,10,18,6,24,0.00,0,,288
2013-2-2,62,44,26,32,24,18,80,53,23,30.37,30.27,30.16,10,10,10,8,1,,0.00,0,,221
2013-2-3,64,52,39,41,35,28,87,54,32,30.19,30.11,30.03,10,10,10,18,7,24,0.00,1,,274
2013-2-4,62,47,32,41,35,30,93,63,36,30.14,30.09,30.04,10,10,7,7,2,,0.00,0,,306
2013-2-5,69,53,37,55,46,36,93,74,43,30.10,30.04,30.01,10,10,10,12,2,,0.00,4,,230
2013-2-6,71,62,53,55,55,52,100,79,57,30.16,30.10,30.04,10,10,5,7,1,,0.00,6,,75
2013-2-7,68,60,51,64,59,50,100,95,83,30.11,29.95,29.74,10,8,3,16,4,23,0.00,7,,153
2013-2-8,59,54,48,54,50,48,100,92,77,30.10,30.00,29.88,10,9,3,13,8,,0.00,6,,295
2013-2-9,66,52,39,50,40,34,100,71,34,30.29,30.22,30.10,10,10,5,9,5,,0.00,0,,56
2013-2-10,73,56,39,57,49,37,93,72,47,30.30,30.23,30.14,10,10,10,16,6,22,0.00,2,,127
2013-2-11,78,69,60,63,60,57,100,78,57,30.17,30.12,30.05,10,10,4,17,8,26,0.00,6,,197
2013-2-12,69,62,59,66,61,59,100,97,88,30.10,29.99,29.78,10,7,1,17,4,23,0.00,8,,88
2013-2-13,82,66,51,70,58,45,94,69,37,29.96,29.83,29.73,10,10,5,21,14,29,0.00,6,,256
2013-2-14,51,45,39,46,42,39,100,84,71,30.10,30.04,29.94,10,10,3,9,5,,0.00,2,,320
2013-2-15,64,48,33,43,38,34,100,75,34,30.12,30.05,29.98,10,8,0,7,1,,0.00,0,,358
2013-2-16,51,44,37,43,34,18,100,72,39,30.16,29.99,29.93,10,10,5,23,5,29,0.00,2,,301
2013-2-17,50,39,28,25,19,14,86,51,26,30.35,30.27,30.16,10,10,1,16,7,22,0.00,0,,309
2013-2-18,60,42,24,36,28,21,100,65,25,30.43,30.33,30.24,10,10,10,14,2,17,0.00,0,,139
2013-2-19,64,54,44,59,48,37,100,83,63,30.23,30.10,29.99,10,8,0,17,7,25,0.00,6,,206
2013-2-20,60,45,30,48,35,27,100,71,27,30.21,30.14,30.10,10,9,0,9,3,,0.00,0,,314
2013-2-21,71,52,32,48,38,30,100,62,30,30.18,30.10,30.03,10,10,10,9,2,,0.00,1,,110
2013-2-22,71,63,55,66,59,48,100,89,72,30.08,30.04,29.99,10,8,2,12,4,,0.00,6,,128
2013-2-23,71,66,60,66,63,61,100,96,83,29.99,29.91,29.83,10,8,1,14,5,23,0.00,8,,221
2013-2-24,73,62,51,61,51,41,100,74,33,30.01,29.95,29.84,10,10,2,12,5,,0.00,4,,5
2013-2-25,59,55,51,59,54,52,100,95,77,29.99,29.92,29.83,10,7,2,20,6,29,0.00,8,,79
2013-2-26,75,66,55,66,57,50,100,78,44,29.82,29.69,29.63,10,8,1,22,12,31,0.00,4,,189
2013-2-27,60,54,48,48,43,37,88,69,51,29.97,29.91,29.82,10,10,10,15,8,20,0.00,0,,264
2013-2-28,64,53,42,45,40,34,100,64,34,29.97,29.92,29.87,10,10,10,20,7,28,0.00,0,,270